AZU2886 SBKP-SBVT

Flight info

Callsign AZU2886
Flight time 1h 13m
Altitude 37000
Route UREMI UZ42 IMDAB DCT SEGLI DCT TODET
Aircraft A20N/M-SDE2E3FGHIRWXY/LB1

Departure

Time 2026-05-06 19:13
Airport Viracopos International Airport (SBKP)

Arrival

Time 2026-05-06 20:26
Airport Eurico de Aguiar Salles International Airport (SBVT)
Time Latitude Longitude Altitude Speed Heading
2026-05-06 18:47 -23.00428 -47.14824 2157 ft 0 kts 218°
2026-05-06 19:03 -23.00418 -47.14815 2155 ft 2 kts 218°
2026-05-06 19:04 -23.00407 -47.14806 2154 ft 2 kts 217°
2026-05-06 19:04 -23.00397 -47.14795 2153 ft 2 kts 261°
2026-05-06 19:04 -23.00398 -47.14781 2153 ft 2 kts 300°
2026-05-06 19:04 -23.00402 -47.14773 2155 ft 0 kts 306°
2026-05-06 19:07 -23.00404 -47.14771 2156 ft 0 kts 307°
2026-05-06 19:08 -23.00402 -47.14773 2155 ft 2 kts 305°
2026-05-06 19:08 -23.00389 -47.14793 2155 ft 5 kts 306°
2026-05-06 19:09 -23.00358 -47.14838 2157 ft 10 kts 307°
2026-05-06 19:09 -23.00320 -47.14891 2151 ft 8 kts 307°
2026-05-06 19:09 -23.00286 -47.14939 2157 ft 9 kts 308°
2026-05-06 19:09 -23.00250 -47.14988 2154 ft 8 kts 306°
2026-05-06 19:10 -23.00204 -47.15015 2153 ft 9 kts 12°
2026-05-06 19:10 -23.00144 -47.14973 2152 ft 11 kts 38°
2026-05-06 19:10 -23.00082 -47.14921 2156 ft 11 kts 37°
2026-05-06 19:10 -23.00031 -47.14871 2149 ft 9 kts 50°
2026-05-06 19:11 -22.99988 -47.14815 2152 ft 10 kts 43°
2026-05-06 19:11 -22.99941 -47.14774 2154 ft 8 kts 38°
2026-05-06 19:11 -22.99908 -47.14736 2150 ft 6 kts 55°
2026-05-06 19:11 -22.99895 -47.14681 2157 ft 9 kts 88°
2026-05-06 19:12 -22.99907 -47.14620 2149 ft 9 kts 115°
2026-05-06 19:12 -23.00015 -47.14464 2148 ft 56 kts 128°
2026-05-06 19:12 -23.00386 -47.13947 2151 ft 114 kts 127°
2026-05-06 19:12 -23.00972 -47.13127 2156 ft 158 kts 128°
2026-05-06 19:13 -23.01659 -47.12157 2663 ft 161 kts 128°
2026-05-06 19:13 -23.02378 -47.11167 3078 ft 173 kts 128°
2026-05-06 19:13 -23.03178 -47.10112 3306 ft 190 kts 133°
2026-05-06 19:13 -23.04244 -47.09182 3559 ft 203 kts 145°
2026-05-06 19:14 -23.05486 -47.08367 3791 ft 218 kts 148°
2026-05-06 19:14 -23.06864 -47.07503 4012 ft 240 kts 149°
2026-05-06 19:14 -23.08380 -47.06552 4299 ft 261 kts 149°
2026-05-06 19:14 -23.09976 -47.05532 4842 ft 270 kts 148°
2026-05-06 19:15 -23.11597 -47.04479 5491 ft 273 kts 148°
2026-05-06 19:15 -23.13226 -47.03404 6162 ft 275 kts 148°
2026-05-06 19:15 -23.14661 -47.02456 6717 ft 278 kts 148°
2026-05-06 19:15 -23.16408 -47.01309 7296 ft 281 kts 148°
2026-05-06 19:16 -23.18071 -47.00218 7864 ft 285 kts 148°
2026-05-06 19:16 -23.19800 -46.99084 8454 ft 288 kts 147°
2026-05-06 19:16 -23.21565 -46.98080 8997 ft 292 kts 153°
2026-05-06 19:16 -23.23431 -46.97103 9624 ft 295 kts 153°
2026-05-06 19:17 -23.25262 -46.96142 10177 ft 298 kts 153°
2026-05-06 19:17 -23.27197 -46.95123 10422 ft 314 kts 153°
2026-05-06 19:17 -23.29190 -46.94070 10545 ft 331 kts 153°
2026-05-06 19:17 -23.31238 -46.92832 10838 ft 340 kts 143°
2026-05-06 19:18 -23.33019 -46.91134 11376 ft 342 kts 130°
2026-05-06 19:18 -23.34421 -46.89047 11972 ft 343 kts 120°
2026-05-06 19:18 -23.35636 -46.86809 12611 ft 345 kts 120°
2026-05-06 19:18 -23.36857 -46.84555 13227 ft 347 kts 120°
2026-05-06 19:19 -23.38086 -46.82285 13827 ft 350 kts 120°
2026-05-06 19:19 -23.39317 -46.80008 14364 ft 352 kts 120°
2026-05-06 19:19 -23.40559 -46.77715 14914 ft 355 kts 121°
2026-05-06 19:19 -23.41821 -46.75391 15476 ft 358 kts 121°
2026-05-06 19:20 -23.43092 -46.73048 16072 ft 361 kts 121°
2026-05-06 19:20 -23.44371 -46.70685 16694 ft 363 kts 121°
2026-05-06 19:20 -23.45658 -46.68301 17318 ft 367 kts 121°
2026-05-06 19:20 -23.46954 -46.65902 17955 ft 370 kts 121°
2026-05-06 19:21 -23.48266 -46.63474 18572 ft 373 kts 122°
2026-05-06 19:21 -23.49591 -46.61025 19133 ft 377 kts 122°
2026-05-06 19:21 -23.50925 -46.58551 19681 ft 380 kts 122°
2026-05-06 19:21 -23.52270 -46.56058 20223 ft 384 kts 122°
2026-05-06 19:22 -23.53633 -46.53534 20752 ft 388 kts 122°
2026-05-06 19:22 -23.55012 -46.50985 21294 ft 392 kts 123°
2026-05-06 19:22 -23.56407 -46.48414 21811 ft 396 kts 122°
2026-05-06 19:22 -23.57593 -46.45682 22319 ft 403 kts 111°
2026-05-06 19:23 -23.58271 -46.42701 22823 ft 410 kts 100°
2026-05-06 19:23 -23.58391 -46.39567 23319 ft 418 kts 88°
2026-05-06 19:23 -23.57917 -46.36415 23798 ft 425 kts 78°
2026-05-06 19:23 -23.57209 -46.33274 24202 ft 429 kts 78°
2026-05-06 19:24 -23.56504 -46.30099 24614 ft 432 kts 79°
2026-05-06 19:24 -23.55803 -46.26898 25030 ft 436 kts 79°
2026-05-06 19:24 -23.55099 -46.23678 25426 ft 439 kts 79°
2026-05-06 19:24 -23.54387 -46.20426 25825 ft 443 kts 79°
2026-05-06 19:25 -23.53676 -46.17191 26211 ft 446 kts 79°
2026-05-06 19:25 -23.52948 -46.13888 26604 ft 450 kts 79°
2026-05-06 19:25 -23.52199 -46.10517 26998 ft 453 kts 79°
2026-05-06 19:25 -23.51451 -46.07173 27381 ft 457 kts 79°
2026-05-06 19:26 -23.50706 -46.03842 27758 ft 460 kts 80°
2026-05-06 19:26 -23.49947 -46.00441 28142 ft 463 kts 80°
2026-05-06 19:26 -23.49187 -45.97014 28525 ft 467 kts 80°
2026-05-06 19:26 -23.48421 -45.93572 28929 ft 470 kts 80°
2026-05-06 19:27 -23.47645 -45.90100 29319 ft 473 kts 80°
2026-05-06 19:27 -23.46860 -45.86605 29668 ft 477 kts 80°
2026-05-06 19:27 -23.46067 -45.83085 30009 ft 480 kts 80°
2026-05-06 19:27 -23.45272 -45.79549 30311 ft 483 kts 80°
2026-05-06 19:28 -23.44475 -45.75985 30609 ft 485 kts 80°
2026-05-06 19:28 -23.43675 -45.72403 30893 ft 488 kts 81°
2026-05-06 19:28 -23.43144 -45.70025 31079 ft 490 kts 81°
2026-05-06 19:28 -23.42063 -45.65182 31495 ft 492 kts 81°
2026-05-06 19:29 -23.41524 -45.62790 31762 ft 492 kts 81°
2026-05-06 19:29 -23.40427 -45.57956 32293 ft 492 kts 81°
2026-05-06 19:29 -23.39883 -45.55560 32562 ft 491 kts 81°
2026-05-06 19:29 -23.38789 -45.50733 33100 ft 491 kts 81°
2026-05-06 19:30 -23.38257 -45.48349 33368 ft 490 kts 82°
2026-05-06 19:30 -23.37476 -45.44739 33760 ft 490 kts 82°
2026-05-06 19:30 -23.36713 -45.41126 34153 ft 490 kts 83°
2026-05-06 19:30 -23.35955 -45.37512 34497 ft 490 kts 83°
2026-05-06 19:31 -23.35198 -45.33908 34843 ft 489 kts 83°
2026-05-06 19:31 -23.34436 -45.30300 35175 ft 489 kts 83°
2026-05-06 19:31 -23.32895 -45.23088 35780 ft 489 kts 83°
2026-05-06 19:32 -23.32119 -45.19489 36062 ft 490 kts 83°
2026-05-06 19:32 -23.31342 -45.15883 36356 ft 489 kts 83°
2026-05-06 19:32 -23.30566 -45.12283 36673 ft 488 kts 84°
2026-05-06 19:32 -23.29789 -45.08685 36948 ft 488 kts 84°
2026-05-06 19:33 -23.29012 -45.05093 37120 ft 489 kts 84°
2026-05-06 19:33 -23.28233 -45.01497 37157 ft 488 kts 84°
2026-05-06 19:33 -23.26689 -44.94375 37153 ft 486 kts 84°
2026-05-06 19:34 -23.25138 -44.87213 37156 ft 487 kts 84°
2026-05-06 19:34 -23.23574 -44.80040 37160 ft 487 kts 84°
2026-05-06 19:35 -23.22018 -44.72884 37156 ft 487 kts 84°
2026-05-06 19:35 -23.20452 -44.65719 37157 ft 487 kts 84°
2026-05-06 19:36 -23.18257 -44.58703 37165 ft 496 kts 72°
2026-05-06 19:36 -23.15512 -44.51829 37149 ft 495 kts 72°
2026-05-06 19:37 -23.12770 -44.44963 37153 ft 495 kts 72°
2026-05-06 19:37 -23.10033 -44.38109 37162 ft 495 kts 72°
2026-05-06 19:38 -23.07294 -44.31257 37155 ft 494 kts 72°
2026-05-06 19:38 -23.04564 -44.24421 37161 ft 494 kts 72°
2026-05-06 19:39 -23.01831 -44.17582 37160 ft 493 kts 72°
2026-05-06 19:39 -22.99111 -44.10810 37161 ft 492 kts 72°
2026-05-06 19:40 -22.96367 -44.03997 37141 ft 492 kts 72°
2026-05-06 19:40 -22.93633 -43.97197 37139 ft 491 kts 71°
2026-05-06 19:41 -22.90902 -43.90406 37116 ft 490 kts 71°
2026-05-06 19:41 -22.88166 -43.83629 37106 ft 490 kts 71°
2026-05-06 19:42 -22.85431 -43.76876 37112 ft 489 kts 71°
2026-05-06 19:42 -22.82698 -43.70132 37112 ft 488 kts 71°
2026-05-06 19:43 -22.79976 -43.63406 37116 ft 487 kts 71°
2026-05-06 19:43 -22.77253 -43.56693 37146 ft 486 kts 70°
2026-05-06 19:44 -22.74529 -43.50000 37144 ft 485 kts 70°
2026-05-06 19:44 -22.71815 -43.43328 37137 ft 484 kts 70°
2026-05-06 19:45 -22.69098 -43.36665 37149 ft 483 kts 70°
2026-05-06 19:45 -22.66389 -43.30029 37141 ft 482 kts 70°
2026-05-06 19:46 -22.63678 -43.23401 37138 ft 481 kts 70°
2026-05-06 19:46 -22.60971 -43.16777 37141 ft 481 kts 70°
2026-05-06 19:47 -22.58265 -43.10164 37158 ft 481 kts 70°
2026-05-06 19:47 -22.55549 -43.03549 37161 ft 481 kts 70°
2026-05-06 19:48 -22.52833 -42.96949 37178 ft 480 kts 70°
2026-05-06 19:48 -22.50119 -42.90354 37168 ft 480 kts 70°
2026-05-06 19:49 -22.47402 -42.83761 37176 ft 480 kts 70°
2026-05-06 19:49 -22.44686 -42.77185 37185 ft 479 kts 70°
2026-05-06 19:50 -22.41970 -42.70615 37190 ft 478 kts 70°
2026-05-06 19:50 -22.39259 -42.64063 37183 ft 478 kts 70°
2026-05-06 19:51 -22.36541 -42.57514 37195 ft 477 kts 70°
2026-05-06 19:51 -22.33828 -42.50972 37190 ft 477 kts 70°
2026-05-06 19:52 -22.31117 -42.44445 37187 ft 476 kts 70°
2026-05-06 19:52 -22.27878 -42.38233 37190 ft 482 kts 55°
2026-05-06 19:53 -22.23812 -42.32479 37178 ft 482 kts 56°
2026-05-06 19:53 -22.19748 -42.26711 37167 ft 482 kts 56°
2026-05-06 19:54 -22.15698 -42.20940 37170 ft 483 kts 56°
2026-05-06 19:54 -22.11629 -42.15172 37177 ft 483 kts 56°
2026-05-06 19:55 -22.07558 -42.09409 37163 ft 483 kts 56°
2026-05-06 19:55 -22.03481 -42.03646 37165 ft 484 kts 56°
2026-05-06 19:56 -21.99396 -41.97884 37169 ft 483 kts 56°
2026-05-06 19:56 -21.95317 -41.92124 37170 ft 483 kts 56°
2026-05-06 19:57 -21.91243 -41.86381 37165 ft 482 kts 55°
2026-05-06 19:57 -21.87174 -41.80636 37168 ft 482 kts 55°
2026-05-06 19:58 -21.83104 -41.74907 37175 ft 482 kts 55°
2026-05-06 19:58 -21.79032 -41.69186 37176 ft 481 kts 55°
2026-05-06 19:59 -21.74971 -41.63482 37170 ft 480 kts 55°
2026-05-06 19:59 -21.70937 -41.57822 37157 ft 480 kts 55°
2026-05-06 20:00 -21.66850 -41.52102 37162 ft 479 kts 55°
2026-05-06 20:00 -21.62815 -41.46462 37161 ft 478 kts 55°
2026-05-06 20:01 -21.58772 -41.40794 37160 ft 478 kts 55°
2026-05-06 20:01 -21.56748 -41.37955 36954 ft 478 kts 55°
2026-05-06 20:01 -21.54728 -41.35123 36690 ft 477 kts 55°
2026-05-06 20:02 -21.52707 -41.32301 36453 ft 475 kts 54°
2026-05-06 20:02 -21.50688 -41.29504 36205 ft 474 kts 52°
2026-05-06 20:02 -21.48432 -41.26910 35703 ft 477 kts 44°
2026-05-06 20:02 -21.46078 -41.24794 35207 ft 475 kts 40°
2026-05-06 20:03 -21.43526 -41.22568 34657 ft 472 kts 40°
2026-05-06 20:03 -21.40986 -41.20344 34109 ft 470 kts 41°
2026-05-06 20:03 -21.38466 -41.18125 33507 ft 467 kts 41°
2026-05-06 20:03 -21.35991 -41.15941 32963 ft 463 kts 41°
2026-05-06 20:04 -21.33516 -41.13753 32421 ft 459 kts 41°
2026-05-06 20:04 -21.31107 -41.11624 31888 ft 456 kts 41°
2026-05-06 20:04 -21.28661 -41.09463 31358 ft 453 kts 40°
2026-05-06 20:04 -21.26242 -41.07329 30831 ft 450 kts 40°
2026-05-06 20:05 -21.23829 -41.05202 30321 ft 447 kts 40°
2026-05-06 20:05 -21.21440 -41.03099 29755 ft 443 kts 40°
2026-05-06 20:05 -21.19071 -41.01018 29258 ft 437 kts 40°
2026-05-06 20:05 -21.16729 -40.98967 28775 ft 432 kts 40°
2026-05-06 20:06 -21.14414 -40.96943 28290 ft 427 kts 40°
2026-05-06 20:06 -21.12132 -40.94949 27831 ft 422 kts 40°
2026-05-06 20:06 -21.09901 -40.92992 27389 ft 417 kts 40°
2026-05-06 20:06 -21.07641 -40.91007 26915 ft 412 kts 40°
2026-05-06 20:07 -21.05479 -40.89109 26473 ft 408 kts 40°
2026-05-06 20:07 -21.03296 -40.87191 26027 ft 404 kts 40°
2026-05-06 20:07 -21.01131 -40.85292 25542 ft 401 kts 40°
2026-05-06 20:07 -20.98983 -40.83409 25086 ft 398 kts 40°
2026-05-06 20:08 -20.96849 -40.81540 24593 ft 395 kts 40°
2026-05-06 20:08 -20.94726 -40.79680 24126 ft 393 kts 40°
2026-05-06 20:08 -20.92612 -40.77830 23620 ft 392 kts 40°
2026-05-06 20:08 -20.90507 -40.75988 23092 ft 390 kts 40°
2026-05-06 20:09 -20.88417 -40.74162 22618 ft 386 kts 40°
2026-05-06 20:09 -20.86343 -40.72349 22131 ft 384 kts 40°
2026-05-06 20:09 -20.84282 -40.70549 21658 ft 381 kts 40°
2026-05-06 20:09 -20.82233 -40.68763 21197 ft 379 kts 39°
2026-05-06 20:10 -20.80044 -40.67215 20734 ft 377 kts 27°
2026-05-06 20:10 -20.77643 -40.66104 20276 ft 375 kts 22°
2026-05-06 20:10 -20.75235 -40.65051 19805 ft 373 kts 23°
2026-05-06 20:10 -20.72842 -40.64001 19352 ft 371 kts 23°
2026-05-06 20:11 -20.70464 -40.62954 18899 ft 369 kts 23°
2026-05-06 20:11 -20.68105 -40.61915 18447 ft 366 kts 23°
2026-05-06 20:11 -20.65750 -40.60878 17963 ft 364 kts 22°
2026-05-06 20:11 -20.63430 -40.59856 17526 ft 359 kts 22°
2026-05-06 20:12 -20.61134 -40.58846 17092 ft 355 kts 23°
2026-05-06 20:12 -20.58869 -40.57848 16668 ft 350 kts 22°
2026-05-06 20:12 -20.56634 -40.56863 16252 ft 345 kts 22°
2026-05-06 20:12 -20.54427 -40.55893 15842 ft 341 kts 22°
2026-05-06 20:13 -20.52248 -40.54936 15430 ft 336 kts 22°
2026-05-06 20:13 -20.50097 -40.53993 15031 ft 332 kts 23°
2026-05-06 20:13 -20.47972 -40.53063 14635 ft 328 kts 23°
2026-05-06 20:13 -20.45877 -40.52142 14236 ft 323 kts 22°
2026-05-06 20:14 -20.43810 -40.51234 13827 ft 319 kts 22°
2026-05-06 20:14 -20.41775 -40.50341 13418 ft 313 kts 23°
2026-05-06 20:14 -20.39778 -40.49462 13035 ft 308 kts 23°
2026-05-06 20:14 -20.37844 -40.48608 12653 ft 302 kts 23°
2026-05-06 20:15 -20.35917 -40.47764 12285 ft 297 kts 22°
2026-05-06 20:15 -20.33943 -40.47155 11885 ft 296 kts 14°
2026-05-06 20:15 -20.31933 -40.46655 11477 ft 296 kts 14°
2026-05-06 20:15 -20.29931 -40.46156 11073 ft 295 kts 14°
2026-05-06 20:16 -20.27940 -40.45662 10669 ft 293 kts 14°
2026-05-06 20:16 -20.25962 -40.45171 10274 ft 291 kts 14°
2026-05-06 20:16 -20.23997 -40.44683 9857 ft 289 kts 14°
2026-05-06 20:16 -20.22052 -40.44201 9443 ft 286 kts 14°
2026-05-06 20:17 -20.20121 -40.43722 8944 ft 283 kts 14°
2026-05-06 20:17 -20.18214 -40.43249 8520 ft 279 kts 14°
2026-05-06 20:17 -20.16341 -40.42781 8118 ft 274 kts 14°
2026-05-06 20:17 -20.14501 -40.42322 7726 ft 269 kts 15°
2026-05-06 20:18 -20.12694 -40.41871 7327 ft 265 kts 15°
2026-05-06 20:18 -20.10980 -40.41245 6961 ft 258 kts 32°
2026-05-06 20:18 -20.09628 -40.40050 6587 ft 251 kts 52°
2026-05-06 20:18 -20.09010 -40.39026 6332 ft 247 kts 66°
2026-05-06 20:19 -20.08282 -40.36754 5855 ft 239 kts 73°
2026-05-06 20:19 -20.07947 -40.35644 5619 ft 236 kts 72°
2026-05-06 20:19 -20.07448 -40.33999 5285 ft 231 kts 73°
2026-05-06 20:19 -20.06959 -40.32385 4955 ft 227 kts 73°
2026-05-06 20:20 -20.06478 -40.30798 4598 ft 224 kts 73°
2026-05-06 20:20 -20.06021 -40.29226 4256 ft 220 kts 79°
2026-05-06 20:20 -20.06016 -40.27629 3955 ft 214 kts 103°
2026-05-06 20:20 -20.06598 -40.26214 3740 ft 206 kts 122°
2026-05-06 20:21 -20.07352 -40.24948 3523 ft 200 kts 122°
2026-05-06 20:21 -20.08068 -40.23734 3338 ft 188 kts 121°
2026-05-06 20:21 -20.08742 -40.22584 3123 ft 179 kts 122°
2026-05-06 20:21 -20.09393 -40.21473 2933 ft 176 kts 122°
2026-05-06 20:22 -20.10046 -40.20385 2742 ft 174 kts 128°
2026-05-06 20:22 -20.11023 -40.19676 2553 ft 173 kts 165°
2026-05-06 20:22 -20.12208 -40.19764 2367 ft 176 kts 203°
2026-05-06 20:22 -20.13240 -40.20468 2185 ft 177 kts 211°
2026-05-06 20:23 -20.14284 -40.21164 1983 ft 177 kts 209°
2026-05-06 20:23 -20.15293 -40.21816 1785 ft 166 kts 209°
2026-05-06 20:23 -20.16262 -40.22443 1591 ft 157 kts 209°
2026-05-06 20:23 -20.17163 -40.23025 1403 ft 150 kts 210°
2026-05-06 20:24 -20.18037 -40.23593 1206 ft 145 kts 210°
2026-05-06 20:24 -20.18889 -40.24150 1009 ft 143 kts 210°
2026-05-06 20:24 -20.19730 -40.24703 813 ft 141 kts 211°
2026-05-06 20:24 -20.20441 -40.25420 734 ft 144 kts 236°
2026-05-06 20:25 -20.20847 -40.26399 745 ft 146 kts 243°
2026-05-06 20:25 -20.21344 -40.27328 699 ft 143 kts 229°
2026-05-06 20:25 -20.22102 -40.27984 602 ft 140 kts 203°
2026-05-06 20:25 -20.23024 -40.28246 397 ft 135 kts 185°
2026-05-06 20:26 -20.23954 -40.28233 226 ft 133 kts 171°
2026-05-06 20:26 -20.24875 -40.28098 52 ft 133 kts 172°
2026-05-06 20:26 -20.25683 -40.27980 27 ft 85 kts 172°
2026-05-06 20:26 -20.26028 -40.27930 27 ft 29 kts 173°
2026-05-06 20:27 -20.26219 -40.27901 27 ft 27 kts 172°
2026-05-06 20:27 -20.26401 -40.27875 27 ft 26 kts 172°
2026-05-06 20:27 -20.26558 -40.27879 27 ft 17 kts 207°
2026-05-06 20:27 -20.26608 -40.27945 27 ft 11 kts 261°
2026-05-06 20:28 -20.26604 -40.28007 27 ft 7 kts 295°
2026-05-06 20:28 -20.26598 -40.28049 27 ft 2 kts 268°
2026-05-06 20:28 -20.26598 -40.28053 27 ft 0 kts 266°
2026-05-06 20:28 -20.26600 -40.28068 27 ft 4 kts 263°
2026-05-06 20:29 -20.26603 -40.28096 27 ft 4 kts 262°
2026-05-06 20:29 -20.26608 -40.28131 27 ft 5 kts 262°
2026-05-06 20:29 -20.26611 -40.28156 27 ft 2 kts 263°
2026-05-06 20:29 -20.26611 -40.28157 27 ft 0 kts 263°
2026-05-06 20:32 -20.26610 -40.28154 27 ft 0 kts 263°